カタログに戻る

STARLINK-38219

運用中通信SSO
NORAD 100215·PAYLOAD·🇺🇸 United States

打ち上げ Aug 4, 2026 から Vandenberg Space Force Base

Loading…

次のパス (今後24時間)

TLE

最新Source: Space-Track

元期: Sep 14, 2026, 22:57 UTC

1 A0215U 26177C   26257.95648694  .00019667  00000-0  36307-3 0  9995
2 A0215  97.2837 308.7187 0001465  92.5550 267.5869 15.49133639  7635

AllMySatでSTARLINK-38219をリアルタイム追跡

Download on the App Store